Hourly Data Report for September 14, 2017

All times are specified in Local Standard Time (LST). Add 1 hour to adjust for Daylight Saving Time where and when it is observed.

FREDERICTON
NEW BRUNSWICK

45°52'08.000" N
66°32'14.000" W
20.70 m
8101505
71700
YFC

Download Data

Hourly Data (September 2017)
Hourly Data Report for September 14, 2017
Temp Definition
°C
Dew Point Temp Definition
°C
Rel Hum Definition
%
Wind Dir Definition
10's deg

Wind Spd Definition
km/h
Visibility Definition
km
Stn Press Definition
kPa
Hmdx Definition


Wind Chill Definition


Weather Definition


TIME
00:00 Legend Double Dagger 14.8 12.0 83 20 9 16.1 100.47     LegendNANA
01:00 Legend Double Dagger 15.1 12.1 82 21 9 16.1 100.49     LegendNANA
02:00 Legend Double Dagger 13.7 11.8 88 20 11 16.1 100.49     LegendNANA
03:00 Legend Double Dagger 13.9 12.0 88 21 9 16.1 100.49     LegendNANA
04:00 Legend Double Dagger 12.8 11.6 92 20 11 16.1 100.51     LegendNANA
05:00 Legend Double Dagger 12.6 11.7 94 21 11 16.1 100.55     LegendNANA
06:00 Legend Double Dagger 12.6 11.8 95 21 8 16.1 100.58     LegendNANA
07:00 Legend Double Dagger 13.1 12.3 95 19 5 16.1 100.65     LegendNANA
08:00 Legend Double Dagger 16.4 14.1 86 19 9 16.1 100.66     LegendNANA
09:00 Legend Double Dagger 19.4 14.9 75 LegendMM 4 8.1 100.68     Haze
10:00 Legend Double Dagger 23.2 15.8 63 22 11 16.1 100.67 28   LegendNANA
11:00 Legend Double Dagger 25.3 15.4 54 28 11 16.1 100.64 30   LegendNANA
12:00 Legend Double Dagger 26.7 14.9 48 22 13 16.1 100.59 31   LegendNANA
13:00 Legend Double Dagger 27.9 14.9 44 27 15 16.1 100.58 32   LegendNANA
14:00 Legend Double Dagger 28.6 13.3 38 21 18 16.1 100.55 32   LegendNANA
15:00 Legend Double Dagger 28.6 12.8 37 25 9 16.1 100.54 31   LegendNANA
16:00 Legend Double Dagger 28.7 14.1 40 25 13 16.1 100.56 32   LegendNANA
17:00 Legend Double Dagger 27.6 14.2 43 27 8 16.1 100.60 31   LegendNANA
18:00 Legend Double Dagger 24.5 16.2 59 26 4 16.1 100.65 29   LegendNANA
19:00 Legend Double Dagger 20.9 16.8 77 25 8 16.1 100.73 26   LegendNANA
20:00 Legend Double Dagger 20.3 16.4 78 17 13 16.1 100.83 25   LegendNANA
21:00 Legend Double Dagger 18.3 15.6 84 20 13 16.1 100.88     LegendNANA
22:00 Legend Double Dagger 18.5 15.8 84 18 5 16.1 100.94     LegendNANA
23:00 Legend Double Dagger 15.9 14.8 93 16 5 16.1 100.98     LegendNANA

Notes on Data Quality.

Legend

  • E = Estimated
  • M = Missing
  • NA = Not Available
  • ‡ = Partner data that is not subject to review by the National Climate Archives
Date modified: